This is the latest recevied weather packets stored in our database for station/object W1ERB-13. If no packets are shown the sender has not sent any weather packets the latest 10 day(s).
| Time | Temp. | Humidity | Pressure | Rain* | Wind** | Luminosity | Snow |
|---|---|---|---|---|---|---|---|
| 1778077719 | 19.44° C | 73% | 1009.4 hPa | 0 mm | - | 404 W/m² | - |
| 1778077417 | 19.44° C | 71% | 1009.4 hPa | 0 mm | - | 450 W/m² | - |
| 1778077115 | 19.44° C | 72% | 1009.1 hPa | 0 mm | - | 396 W/m² | - |
| 1778076813 | 18.89° C | 72% | 1009.3 hPa | 0 mm | - | 356 W/m² | - |
| 1778076510 | 18.89° C | 73% | 1009.3 hPa | 0 mm | - | 370 W/m² | - |
| 1778076207 | 18.89° C | 73% | 1009.5 hPa | 0 mm | - | 439 W/m² | - |
| 1778075904 | 18.89° C | 75% | 1009.6 hPa | 0 mm | - | 411 W/m² | - |
| 1778075600 | 18.89° C | 74% | 1009.5 hPa | 0 mm | - | 350 W/m² | - |
| 1778075297 | 18.33° C | 75% | 1009.3 hPa | 0 mm | - | 542 W/m² | - |
| 1778074994 | 17.78° C | 76% | 1009.2 hPa | 0 mm | - | 278 W/m² | - |
| 1778074691 | 18.33° C | 76% | 1009.1 hPa | 0 mm | - | 252 W/m² | - |
| 1778074388 | 18.33° C | 76% | 1009 hPa | 0 mm | - | 556 W/m² | - |
| 1778074084 | 17.78° C | 77% | 1009.4 hPa | 0 mm | - | 433 W/m² | - |
| 1778073781 | 17.78° C | 78% | 1009.3 hPa | 0 mm | - | 329 W/m² | - |
| 1778073480 | 17.22° C | 79% | 1009.3 hPa | 0 mm | - | 334 W/m² | - |
| 1778073175 | 17.22° C | 79% | 1009.4 hPa | 0 mm | - | 263 W/m² | - |
| 1778072872 | 17.22° C | 79% | 1009.3 hPa | 0 mm | - | 221 W/m² | - |
| 1778072569 | 17.22° C | 79% | 1009.4 hPa | 0 mm | - | 231 W/m² | - |
| 1778072267 | 16.67° C | 80% | 1009.2 hPa | 0 mm | - | 250 W/m² | - |
| 1778071965 | 16.67° C | 80% | 1009.6 hPa | 0 mm | - | 189 W/m² | - |
| 1778071663 | 16.67° C | 80% | 1009.6 hPa | 0 mm | - | 221 W/m² | - |
| 1778071360 | 16.67° C | 81% | 1009.8 hPa | 0 mm | - | 216 W/m² | - |
| 1778071057 | 16.67° C | 82% | 1009.9 hPa | 0 mm | - | 245 W/m² | - |
| 1778070756 | 16.67° C | 82% | 1010.1 hPa | 0 mm | - | 241 W/m² | - |
| 1778070452 | 16.11° C | 82% | 1010.1 hPa | 0 mm | - | 252 W/m² | - |
* Rain latest hour (hover to see other rain measurements)
** Current wind speed in m/s (hover to see current wind gust speed)